GW7021 Weather Reports


time (UTC)temp
C
wind
direction
speed
KPH
gust
KPH
rain 1hr
cm
rain 24hr
cm
rain mn
cm
humidity
%
barometer
mb
20260906083004 33 254 4.8 11.3 0.00 0.00 0.00 26 1018.9
20260906082504 32 283 4.8 8.0 0.00 0.00 0.00 29 1018.9
20260906082003 32 274 6.4 8.0 0.00 0.00 0.00 31 1019.1
20260906081503 32 285 8.0 9.7 0.00 0.00 0.00 30 1019.1
20260906081004 31 315 8.0 9.7 0.00 0.00 0.00 31 1019.0
20260906080503 31 18 8.0 9.7 0.00 0.00 0.00 31 1019.1
20260906075503 31 264 6.4 9.7 0.00 0.00 0.00 32 1019.0
20260906075003 30 291 8.0 11.3 0.00 0.00 0.00 33 1019.1
20260906074003 30 358 6.4 8.0 0.00 0.00 0.00 35 1019.1
20260906073503 30 8 9.7 12.9 0.00 0.00 0.00 35 1018.9
20260906072504 29 313 8.0 11.3 0.00 0.00 0.00 37 1018.8
20260906072004 28 297 8.0 11.3 0.00 0.00 0.00 37 1018.8
20260906071504 28 301 9.7 11.3 0.00 0.00 0.00 38 1018.7
20260906070503 28 271 8.0 11.3 0.00 0.00 0.00 38 1018.7
20260906070004 28 274 8.0 9.7 0.00 0.00 0.00 40 1018.6
20260906065503 27 278 8.0 9.7 0.00 0.00 0.00 40 1018.8
20260906065004 27 292 8.0 9.7 0.00 0.00 0.00 40 1018.6
20260906064003 27 321 8.0 11.3 0.00 0.00 0.00 44 1018.6
20260906063003 26 310 6.4 6.4 0.00 0.00 0.00 45 1018.7
20260906061004 25 249 3.2 4.8 0.00 0.00 0.00 52 1018.4
20260906060504 25 222 4.8 6.4 0.00 0.00 0.00 53 1018.4
20260906060004 24 222 4.8 6.4 0.00 0.00 0.00 52 1018.4
20260906055003 23 237 4.8 6.4 0.00 0.00 0.00 56 1018.4
20260906054504 23 222 4.8 4.8 0.00 0.00 0.00 56 1018.4
20260906053504 22 248 3.2 4.8 0.00 0.00 0.00 61 1018.3
20260906053003 22 230 4.8 6.4 0.00 0.00 0.00 63 1018.4
20260906052504 21 221 4.8 6.4 0.00 0.00 0.00 64 1018.4
20260906052004 21 250 4.8 6.4 0.00 0.00 0.00 65 1018.3
20260906051504 20 293 4.8 6.4 0.00 0.00 0.00 67 1018.3
20260906051004 20 327 4.8 6.4 0.00 0.00 0.00 67 1018.3
20260906050504 20 316 4.8 6.4 0.00 0.00 0.00 66 1018.2
20260906050004 20 297 4.8 6.4 0.00 0.00 0.00 65 1018.1
20260906045003 19 312 6.4 8.0 0.00 0.00 0.00 69 1018.1
20260906044503 18 327 4.8 8.0 0.00 0.00 0.00 71 1018.1
20260906044004 18 346 3.2 3.2 0.00 0.00 0.00 72 1018.0
20260906043504 17 26 3.2 3.2 0.00 0.00 0.00 72 1018.0
20260906043004 17 49 3.2 3.2 0.00 0.00 0.00 72 1018.0
20260906042504 17 61 3.2 3.2 0.00 0.00 0.00 74 1017.9
20260906041004 17 170 0.0 3.2 0.00 0.00 0.00 77 1017.8
20260906040503 17 29 1.6 3.2 0.00 0.00 0.00 73 1017.6
20260906040004 17 47 3.2 3.2 0.00 0.00 0.00 73 1017.4
20260906035503 17 80 3.2 3.2 0.00 0.00 0.00 78 1017.4
20260906035004 17 129 1.6 3.2 0.00 0.00 0.00 79 1017.5
20260906034504 17 119 3.2 3.2 0.00 0.00 0.00 76 1017.5
20260906034005 18 74 1.6 3.2 0.00 0.00 0.00 71 1017.4
20260906033504 18 55 3.2 3.2 0.00 0.00 0.00 72 1017.4
20260906032504 17 82 3.2 4.8 0.00 0.00 0.00 75 1017.2
20260906031504 17 188 4.8 6.4 0.00 0.00 0.00 74 1017.2
20260906031004 17 169 6.4 8.0 0.00 0.00 0.00 72 1017.1
20260906030504 18 48 6.4 9.7 0.00 0.00 0.00 69 1017.2
20260906030004 18 40 6.4 9.7 0.00 0.00 0.00 67 1017.0
20260906025504 18 40 4.8 6.4 0.00 0.00 0.00 72 1017.1
20260906025004 17 58 4.8 6.4 0.00 0.00 0.00 75 1017.0
20260906024505 17 94 4.8 4.8 0.00 0.00 0.00 77 1017.1
20260906024005 17 114 4.8 4.8 0.00 0.00 0.00 76 1017.0
20260906023004 17 81 3.2 4.8 0.00 0.00 0.00 76 1017.0
20260906022504 17 31 3.2 4.8 0.00 0.00 0.00 75 1017.0
20260906022004 17 267 1.6 3.2 0.00 0.00 0.00 74 1017.0
20260906021004 18 322 3.2 4.8 0.00 0.00 0.00 73 1017.0
20260906020504 18 352 3.2 4.8 0.00 0.00 0.00 74 1017.1
20260906020005 18 24 3.2 4.8 0.00 0.00 0.00 73 1017.2
20260906015504 18 71 3.2 3.2 0.00 0.00 0.00 74 1017.2
20260906015004 18 83 3.2 3.2 0.00 0.00 0.00 74 1017.4
20260906014504 18 64 3.2 3.2 0.00 0.00 0.00 76 1017.5
20260906014004 18 50 3.2 3.2 0.00 0.00 0.00 76 1017.3
20260906013504 18 88 1.6 3.2 0.00 0.00 0.00 76 1017.5
20260906013004 18 191 3.2 4.8 0.00 0.00 0.00 75 1017.3
20260906012504 18 214 3.2 4.8 0.00 0.00 0.00 76 1017.4
20260906012005 18 98 3.2 9.7 0.00 0.00 0.00 74 1017.4
20260906011504 18 67 4.8 9.7 0.00 0.00 0.00 73 1017.4
20260906011004 18 25 3.2 4.8 0.00 0.00 0.00 73 1017.4
20260906010504 18 3 3.2 3.2 0.00 0.00 0.00 76 1017.4
20260906005504 17 95 1.6 3.2 0.00 0.00 0.00 79 1017.6
20260906005005 17 135 1.6 3.2 0.00 0.00 0.00 79 1017.5
20260906004005 17 122 3.2 3.2 0.00 0.00 0.00 78 1017.5
20260906003504 18 108 1.6 3.2 0.00 0.00 0.00 77 1017.6
20260906003004 18 181 0.0 1.6 0.00 0.00 0.00 77 1017.7
20260906002504 18 147 1.6 4.8 0.00 0.00 0.00 77 1017.7
20260906002004 18 123 3.2 4.8 0.00 0.00 0.00 77 1017.6
20260906001504 18 118 3.2 4.8 0.00 0.00 0.00 77 1017.7
20260906001004 18 136 3.2 3.2 0.00 0.00 0.00 78 1017.7
20260906000504 18 108 3.2 3.2 0.00 0.00 0.00 78 1017.8
20260905235505 18 333 3.2 3.2 0.00 0.00 0.00 79 1017.9
20260905235005 18 250 3.2 3.2 0.00 0.00 0.00 78 1018.0
20260905234504 18 200 1.6 4.8 0.00 0.00 0.00 77 1017.9
20260905234004 19 115 3.2 6.4 0.00 0.00 0.00 76 1017.8
20260905233504 19 114 4.8 6.4 0.00 0.00 0.00 77 1017.9
20260905233005 19 125 3.2 6.4 0.00 0.00 0.00 77 1018.0
20260905232505 19 126 3.2 3.2 0.00 0.00 0.00 76 1018.0
20260905231504 19 157 1.6 3.2 0.00 0.00 0.00 75 1018.0
20260905231004 19 178 1.6 3.2 0.00 0.00 0.00 75 1018.1
20260905230504 19 184 0.0 3.2 0.00 0.00 0.00 73 1018.1
20260905230004 20 270 0.0 1.6 0.00 0.00 0.00 73 1018.1
20260905225504 20 270 0.0 1.6 0.00 0.00 0.00 74 1018.0
20260905225004 20 270 1.6 3.2 0.00 0.00 0.00 75 1018.1
20260905224004 20 332 1.6 3.2 0.00 0.00 0.00 72 1018.1
20260905223504 21 122 1.6 3.2 0.00 0.00 0.00 72 1018.2
20260905223004 21 143 3.2 3.2 0.00 0.00 0.00 72 1018.2
20260905222005 21 83 3.2 3.2 0.00 0.00 0.00 71 1018.3
20260905221505 21 53 1.6 3.2 0.00 0.00 0.00 72 1018.5
20260905221005 21 60 0.0 3.2 0.00 0.00 0.00 71 1018.4
20260905220504 20 90 0.0 1.6 0.00 0.00 0.00 72 1018.5
20260905220004 20 0 0.0 0.0 0.00 0.00 0.00 71 1018.5
20260905215505 21 90 0.0 1.6 0.00 0.00 0.00 71 1018.4
20260905215004 21 84 1.6 3.2 0.00 0.00 0.00 71 1018.5
20260905214004 21 102 3.2 3.2 0.00 0.00 0.00 72 1018.5
20260905213504 21 127 1.6 3.2 0.00 0.00 0.00 72 1018.5
20260905213004 21 158 1.6 3.2 0.00 0.00 0.00 72 1018.5
20260905212504 21 139 1.6 3.2 0.00 0.00 0.00 72 1018.6
20260905212012 21 130 3.2 3.2 0.00 0.00 0.00 71 1018.6
20260905211505 21 125 3.2 3.2 0.00 0.00 0.00 71 1018.7
20260905210505 22 123 3.2 4.8 0.00 0.00 0.00 72 1018.8
20260905210010 22 149 1.6 3.2 0.00 0.00 0.00 72 1018.7
20260905205504 22 140 1.6 3.2 0.00 0.00 0.00 72 1018.9
20260905204511 22 94 3.2 4.8 0.00 0.00 0.00 72 1018.9
20260905204005 22 94 4.8 4.8 0.00 0.00 0.00 70 1018.8
20260905203505 22 99 4.8 4.8 0.00 0.00 0.00 72 1018.8
20260905203005 22 105 3.2 4.8 0.00 0.00 0.00 72 1018.8
20260905202506 22 73 3.2 4.8 0.00 0.00 0.00 71 1018.9
20260905202011 22 57 3.2 4.8 0.00 0.00 0.00 68 1019.0
20260905201504 22 94 1.6 4.8 0.00 0.00 0.00 71 1018.9
20260905201006 22 100 3.2 4.8 0.00 0.00 0.00 70 1018.9
20260905200505 22 102 3.2 4.8 0.00 0.00 0.00 70 1019.0
20260905200004 22 108 3.2 3.2 0.00 0.00 0.00 70 1018.9
20260905195505 22 133 3.2 3.2 0.00 0.00 0.00 69 1018.9
20260905195005 22 131 3.2 3.2 0.00 0.00 0.00 67 1018.9
20260905194506 23 42 3.2 3.2 0.00 0.00 0.00 66 1018.9
20260905194005 23 38 4.8 6.4 0.00 0.00 0.00 62 1018.9
20260905193504 23 47 4.8 6.4 0.00 0.00 0.00 63 1019.0
20260905192505 23 88 3.2 3.2 0.00 0.00 0.00 72 1018.9
20260905192006 23 335 1.6 3.2 0.00 0.00 0.00 70 1019.1
20260905191505 25 19 1.6 3.2 0.00 0.00 0.00 71 1019.0
20260905191005 25 15 3.2 3.2 0.00 0.00 0.00 71 1018.9
20260905190505 25 341 3.2 3.2 0.00 0.00 0.00 71 1019.0
20260905190005 25 327 3.2 3.2 0.00 0.00 0.00 70 1018.9
20260905185005 25 320 3.2 3.2 0.00 0.00 0.00 70 1018.8
20260905184005 25 331 3.2 4.8 0.00 0.00 0.00 67 1018.9
20260905183505 25 153 3.2 4.8 0.00 0.00 0.00 67 1018.6
20260905182012 25 122 6.4 11.3 0.00 0.00 0.00 65 1018.4
20260905181505 25 118 6.4 6.4 0.00 0.00 0.00 63 1018.4
20260905181005 25 118 4.8 6.4 0.00 0.00 0.00 61 1018.3
20260905180007 26 133 3.2 6.4 0.00 0.00 0.00 57 1018.3
20260905175505 26 131 6.4 8.0 0.00 0.00 0.00 57 1018.1
20260905175005 26 135 8.0 9.7 0.00 0.00 0.00 56 1018.2
20260905174505 26 136 8.0 9.7 0.00 0.00 0.00 55 1018.1
20260905174005 26 130 9.7 11.3 0.00 0.00 0.00 54 1018.0
20260905173505 27 129 11.3 12.9 0.00 0.00 0.00 53 1017.9
20260905173005 27 133 9.7 12.9 0.00 0.00 0.00 52 1017.9
20260905172505 27 133 9.7 11.3 0.00 0.00 0.00 52 1017.9
20260905172005 27 134 9.7 11.3 0.00 0.00 0.00 52 1017.7
20260905171005 27 128 11.3 14.5 0.00 0.00 0.00 49 1017.7
20260905170005 27 122 9.7 12.9 0.00 0.00 0.00 49 1017.7
20260905165506 27 116 11.3 12.9 0.00 0.00 0.00 51 1017.5
20260905165005 28 121 11.3 14.5 0.00 0.00 0.00 52 1017.6
20260905164505 28 122 11.3 14.5 0.00 0.00 0.00 52 1017.6
20260905164006 28 132 12.9 17.7 0.00 0.00 0.00 52 1017.7
20260905163505 28 144 12.9 17.7 0.00 0.00 0.00 51 1017.6
20260905163005 28 140 11.3 17.7 0.00 0.00 0.00 50 1017.5
20260905162505 29 134 9.7 16.1 0.00 0.00 0.00 48 1017.6
20260905162005 29 140 11.3 16.1 0.00 0.00 0.00 50 1017.4
20260905161506 30 145 14.5 19.3 0.00 0.00 0.00 51 1017.6
20260905161005 30 140 17.7 19.3 0.00 0.00 0.00 51 1017.4
20260905160505 30 135 14.5 17.7 0.00 0.00 0.00 51 1017.3
20260905160005 31 137 12.9 17.7 0.00 0.00 0.00 49 1017.3
20260905155505 31 140 14.5 17.7 0.00 0.00 0.00 48 1017.3
20260905155005 31 144 16.1 19.3 0.00 0.00 0.00 41 1017.3
20260905154505 32 149 14.5 19.3 0.00 0.00 0.00 35 1017.3
20260905154006 33 141 9.7 17.7 0.00 0.00 0.00 30 1017.2
20260905153505 33 58 8.0 9.7 0.00 0.00 0.00 20 1017.1
20260905153005 33 39 9.7 14.5 0.00 0.00 0.00 20 1017.0
20260905152506 33 41 12.9 17.7 0.00 0.00 0.00 20 1017.0
20260905151506 34 83 11.3 24.1 0.00 0.00 0.00 20 1017.1
20260905150503 33 31 16.1 22.5 0.00 0.00 0.00 20 1017.1
20260905150004 34 15 14.5 22.5 0.00 0.00 0.00 20 1017.0
20260905145504 34 344 11.3 16.1 0.00 0.00 0.00 20 1016.8
20260905144503 34 64 9.7 17.7 0.00 0.00 0.00 20 1017.1
20260905144004 34 67 9.7 12.9 0.00 0.00 0.00 12 1016.9
20260905143004 34 20 12.9 24.1 0.00 0.00 0.00 11 1017.0
20260905142504 33 35 17.7 24.1 0.00 0.00 0.00 12 1017.0
20260905142004 33 47 16.1 24.1 0.00 0.00 0.00 11 1016.9
20260905141503 34 39 16.1 24.1 0.00 0.00 0.00 11 1017.0
20260905141004 34 27 17.7 24.1 0.00 0.00 0.00 11 1016.9
20260905140503 34 20 19.3 27.4 0.00 0.00 0.00 12 1017.0
20260905140004 34 32 17.7 27.4 0.00 0.00 0.00 20 1017.0
20260905135004 34 8 19.3 29.0 0.00 0.00 0.00 20 1017.0
20260905134504 33 11 22.5 29.0 0.00 0.00 0.00 20 1017.0
20260905133504 34 4 19.3 29.0 0.00 0.00 0.00 20 1016.9
20260905133004 34 3 19.3 29.0 0.00 0.00 0.00 20 1016.9
20260905131504 33 21 20.9 27.4 0.00 0.00 0.00 20 1017.4
20260905131004 33 17 22.5 29.0 0.00 0.00 0.00 20 1017.1
20260905130505 33 13 24.1 29.0 0.00 0.00 0.00 20 1017.3
20260905130004 33 2 22.5 27.4 0.00 0.00 0.00 20 1017.2
20260905125504 33 351 22.5 27.4 0.00 0.00 0.00 20 1017.4
20260905125004 33 337 22.5 29.0 0.00 0.00 0.00 20 1017.3
20260905124004 33 2 25.7 30.6 0.00 0.00 0.00 20 1017.4
20260905123503 33 6 25.7 33.8 0.00 0.00 0.00 20 1017.4
20260905123004 33 355 27.4 35.4 0.00 0.00 0.00 21 1017.5
20260905122004 33 341 24.1 30.6 0.00 0.00 0.00 21 1017.6
20260905121504 33 337 24.1 29.0 0.00 0.00 0.00 21 1017.5
20260905120504 33 347 22.5 33.8 0.00 0.00 0.00 21 1017.7
20260905120004 33 355 22.5 27.4 0.00 0.00 0.00 21 1017.8
20260905115504 33 22 22.5 27.4 0.00 0.00 0.00 21 1017.8
20260905115004 33 9 22.5 32.2 0.00 0.00 0.00 21 1017.8
20260905114504 33 351 20.9 32.2 0.00 0.00 0.00 21 1017.8
20260905114004 33 349 24.1 35.4 0.00 0.00 0.00 21 1018.0
20260905113504 33 6 27.4 35.4 0.00 0.00 0.00 21 1018.0
20260905112505 33 342 27.4 33.8 0.00 0.00 0.00 21 1018.0
20260905112004 33 346 29.0 37.0 0.00 0.00 0.00 20 1018.1
20260905111504 33 7 30.6 37.0 0.00 0.00 0.00 21 1018.1
20260905111005 33 9 33.8 37.0 0.00 0.00 0.00 21 1018.1
20260905110504 33 1 32.2 37.0 0.00 0.00 0.00 21 1018.2
20260905110004 33 355 29.0 33.8 0.00 0.00 0.00 20 1018.1
20260905105504 33 349 30.6 37.0 0.00 0.00 0.00 20 1018.1
20260905105005 33 344 27.4 37.0 0.00 0.00 0.00 21 1018.0
20260905104004 33 353 29.0 33.8 0.00 0.00 0.00 20 1018.2
20260905103504 33 1 25.7 33.8 0.00 0.00 0.00 21 1018.1
20260905103005 32 7 27.4 35.4 0.00 0.00 0.00 20 1018.1
20260905102504 32 353 27.4 35.4 0.00 0.00 0.00 21 1018.2
20260905102004 32 347 25.7 30.6 0.00 0.00 0.00 20 1018.2
20260905101504 32 4 27.4 35.4 0.00 0.00 0.00 21 1018.2
20260905101005 33 4 27.4 35.4 0.00 0.00 0.00 21 1018.2
20260905100504 32 340 29.0 35.4 0.00 0.00 0.00 21 1018.2
20260905095504 32 346 29.0 37.0 0.00 0.00 0.00 24 1018.1
20260905095004 32 343 27.4 37.0 0.00 0.00 0.00 21 1018.2
20260905094006 32 347 20.9 27.4 0.00 0.00 0.00 24 1018.4
20260905093504 32 355 22.5 33.8 0.00 0.00 0.00 25 1018.3
20260905093004 32 353 25.7 33.8 0.00 0.00 0.00 25 1018.4
20260905092504 32 349 27.4 33.8 0.00 0.00 0.00 25 1018.4
20260905092004 32 4 25.7 33.8 0.00 0.00 0.00 25 1018.5
20260905091004 32 347 24.1 35.4 0.00 0.00 0.00 25 1018.4
20260905090505 31 1 20.9 30.6 0.00 0.00 0.00 25 1018.6
20260905090005 31 344 19.3 27.4 0.00 0.00 0.00 24 1018.5
20260905085504 31 336 19.3 27.4 0.00 0.00 0.00 25 1018.6
20260905085004 31 346 22.5 29.0 0.00 0.00 0.00 25 1018.7
20260905084504 31 357 24.1 29.0 0.00 0.00 0.00 24 1018.8